Time,TemperatureF,DewpointF,PressureIn,WindDirection,WindDirectionDegrees,WindSpeedMPH,WindSpeedGustMPH,Humidity,HourlyPrecipIn,Conditions,Clouds,dailyrainin,SoftwareType,DateUTC
2013-07-16 00:22:00,67.0,49.0,29.62,North,0,0.0,7.0,53,0.00,,,0.00,,2013-07-16 07:22:00,
2013-07-16 04:32:00,67.0,44.0,29.62,SE,125,5.0,6.0,44,0.00,,,0.00,,2013-07-16 11:32:00,
2013-07-16 04:42:00,67.0,43.0,29.62,SE,125,2.0,5.0,42,0.00,,,0.00,,2013-07-16 11:42:00,
2013-07-16 05:01:00,67.0,44.0,29.62,SE,124,6.0,8.0,44,0.00,,,0.00,,2013-07-16 12:01:00,
2013-07-16 05:11:00,67.0,44.0,29.62,SE,124,6.0,8.0,44,0.00,,,0.00,,2013-07-16 12:11:00,
2013-07-16 09:43:00,70.0,45.0,29.70,SE,125,6.0,12.0,40,0.00,,,0.00,,2013-07-16 16:43:00,
2013-07-16 10:02:00,69.0,47.0,29.69,SE,130,7.0,10.0,46,0.00,,,0.00,,2013-07-16 17:02:00,
2013-07-16 10:12:00,69.0,47.0,29.69,SE,130,7.0,10.0,46,0.00,,,0.00,,2013-07-16 17:12:00,
2013-07-16 10:22:00,71.0,51.0,29.70,SSE,147,3.0,7.0,49,0.00,,,0.00,,2013-07-16 17:22:00,
2013-07-16 10:32:00,71.0,51.0,29.70,SSE,147,3.0,7.0,49,0.00,,,0.00,,2013-07-16 17:32:00,
2013-07-16 10:43:00,70.0,52.0,29.70,North,0,0.0,4.0,53,0.00,,,0.00,,2013-07-16 17:43:00,
2013-07-16 10:53:00,70.0,52.0,29.70,North,0,0.0,4.0,53,0.00,,,0.00,,2013-07-16 17:53:00,
2013-07-16 11:01:00,70.0,47.0,29.70,South,180,2.0,5.0,44,0.00,,,0.00,,2013-07-16 18:01:00,
2013-07-16 11:11:00,70.0,47.0,29.70,South,180,2.0,5.0,44,0.00,,,0.00,,2013-07-16 18:11:00,
2013-07-16 11:32:00,72.0,48.0,29.71,North,0,0.0,7.0,42,0.00,,,0.00,,2013-07-16 18:32:00,
2013-07-16 11:43:00,73.0,52.0,29.72,North,0,0.0,8.0,48,0.00,,,0.00,,2013-07-16 18:43:00,
2013-07-16 11:52:00,73.0,52.0,29.72,North,0,0.0,8.0,48,0.00,,,0.00,,2013-07-16 18:52:00,
2013-07-16 12:01:00,73.0,50.0,29.71,SSE,155,3.0,11.0,45,0.00,,,0.00,,2013-07-16 19:01:00,
2013-07-16 12:11:00,73.0,50.0,29.71,SSE,155,3.0,11.0,45,0.00,,,0.00,,2013-07-16 19:11:00,
2013-07-16 12:22:00,73.0,-99.9,29.72,SSE,159,3.0,9.0,-999,0.00,,,0.00,,2013-07-16 19:22:00,
2013-07-16 12:32:00,73.0,-99.9,29.72,SSE,159,3.0,9.0,-999,0.00,,,0.00,,2013-07-16 19:32:00,
2013-07-16 12:43:00,73.0,53.0,29.72,SSE,164,3.0,8.0,50,0.00,,,0.00,,2013-07-16 19:43:00,
2013-07-16 12:52:00,73.0,53.0,29.72,SSE,164,3.0,8.0,50,0.00,,,0.00,,2013-07-16 19:52:00,
2013-07-16 13:03:00,75.0,54.0,29.72,North,0,0.0,8.0,48,0.00,,,0.00,,2013-07-16 20:03:00,
2013-07-16 13:11:00,75.0,54.0,29.72,North,0,0.0,8.0,48,0.00,,,0.00,,2013-07-16 20:11:00,
2013-07-16 13:32:00,77.0,53.0,29.72,South,169,1.0,5.0,44,0.00,,,0.00,,2013-07-16 20:32:00,
2013-07-16 13:43:00,75.0,53.0,29.71,SSE,160,2.0,8.0,47,0.00,,,0.00,,2013-07-16 20:43:00,
2013-07-16 13:52:00,75.0,53.0,29.71,SSE,160,2.0,8.0,47,0.00,,,0.00,,2013-07-16 20:52:00,
2013-07-16 14:11:00,73.0,54.0,29.71,South,180,4.0,9.0,51,0.00,,,0.00,,2013-07-16 21:11:00,
2013-07-16 14:22:00,73.0,54.0,29.71,South,180,4.0,9.0,51,0.00,,,0.00,,2013-07-16 21:22:00,
2013-07-16 14:32:00,73.0,54.0,29.71,South,180,4.0,9.0,51,0.00,,,0.00,,2013-07-16 21:32:00,
2013-07-16 14:52:00,71.0,51.0,29.70,South,172,6.0,12.0,49,0.00,,,0.00,,2013-07-16 21:52:00,
2013-07-16 15:01:00,71.0,51.0,29.70,South,172,6.0,12.0,49,0.00,,,0.00,,2013-07-16 22:01:00,
2013-07-16 15:11:00,71.0,51.0,29.70,South,172,6.0,12.0,49,0.00,,,0.00,,2013-07-16 22:11:00,
2013-07-16 15:22:00,71.0,47.0,29.70,SSE,156,7.0,13.0,43,0.00,,,0.00,,2013-07-16 22:22:00,
2013-07-16 15:33:00,71.0,47.0,29.70,SSE,156,7.0,13.0,43,0.00,,,0.00,,2013-07-16 22:33:00,
2013-07-16 15:43:00,72.0,49.0,29.71,South,174,4.0,9.0,45,0.00,,,0.00,,2013-07-16 22:43:00,
2013-07-16 15:52:00,72.0,49.0,29.71,South,174,4.0,9.0,45,0.00,,,0.00,,2013-07-16 22:52:00,
2013-07-16 16:01:00,72.0,45.0,29.71,South,171,2.0,7.0,38,0.00,,,0.00,,2013-07-16 23:01:00,
2013-07-16 16:11:00,72.0,45.0,29.71,South,171,2.0,7.0,38,0.00,,,0.00,,2013-07-16 23:11:00,
2013-07-16 16:22:00,73.0,-99.9,29.71,North,0,0.0,6.0,-999,0.00,,,0.00,,2013-07-16 23:22:00,
2013-07-16 16:32:00,73.0,-99.9,29.71,North,0,0.0,6.0,-999,0.00,,,0.00,,2013-07-16 23:32:00,
2013-07-16 16:42:00,71.0,48.0,29.71,South,184,4.0,7.0,44,0.00,,,0.00,,2013-07-16 23:42:00,
2013-07-16 16:52:00,71.0,48.0,29.71,South,184,4.0,7.0,44,0.00,,,0.00,,2013-07-16 23:52:00,
2013-07-16 17:01:00,72.0,48.0,29.71,North,0,0.0,4.0,42,0.00,,,0.00,,2013-07-17 00:01:00,
2013-07-16 17:22:00,77.0,44.0,29.71,SW,229,2.0,10.0,31,0.00,,,0.00,,2013-07-17 00:22:00,
2013-07-16 17:33:00,77.0,44.0,29.71,SW,229,2.0,10.0,31,0.00,,,0.00,,2013-07-17 00:33:00,
2013-07-16 17:42:00,77.0,46.0,29.70,North,0,0.0,0.0,33,0.00,,,0.00,,2013-07-17 00:42:00,
2013-07-16 17:52:00,77.0,46.0,29.70,North,0,0.0,0.0,33,0.00,,,0.00,,2013-07-17 00:52:00,
2013-07-16 18:01:00,78.0,43.0,29.70,WSW,240,3.0,7.0,29,0.00,,,0.00,,2013-07-17 01:01:00,
2013-07-16 18:11:00,78.0,43.0,29.70,WSW,240,3.0,7.0,29,0.00,,,0.00,,2013-07-17 01:11:00,
2013-07-16 18:22:00,77.0,43.0,29.70,North,0,0.0,8.0,30,0.00,,,0.00,,2013-07-17 01:22:00,
2013-07-16 18:32:00,77.0,43.0,29.70,North,0,0.0,8.0,30,0.00,,,0.00,,2013-07-17 01:32:00,
2013-07-16 18:42:00,77.0,40.0,29.70,North,0,0.0,4.0,27,0.00,,,0.00,,2013-07-17 01:42:00,
2013-07-16 18:53:00,77.0,40.0,29.70,North,0,0.0,4.0,27,0.00,,,0.00,,2013-07-17 01:53:00,
2013-07-16 19:11:00,77.0,44.0,29.70,WSW,252,2.0,8.0,31,0.00,,,0.00,,2013-07-17 02:11:00,
2013-07-16 19:32:00,79.0,-99.9,29.70,WSW,241,1.0,9.0,-999,0.00,,,0.00,,2013-07-17 02:32:00,
2013-07-16 19:43:00,80.0,-99.9,29.70,WSW,254,6.0,10.0,-999,0.00,,,0.00,,2013-07-17 02:43:00,
2013-07-16 19:53:00,80.0,-99.9,29.70,WSW,254,6.0,10.0,-999,0.00,,,0.00,,2013-07-17 02:53:00,
2013-07-16 20:01:00,78.0,-99.9,29.71,West,271,6.0,9.0,-999,0.00,,,0.00,,2013-07-17 03:01:00,
2013-07-16 20:11:00,78.0,-99.9,29.71,West,271,6.0,9.0,-999,0.00,,,0.00,,2013-07-17 03:11:00,
2013-07-16 20:32:00,76.0,-99.9,29.71,WSW,250,6.0,10.0,-999,0.00,,,0.00,,2013-07-17 03:32:00,
2013-07-16 21:11:00,71.0,41.0,29.71,WSW,247,2.0,9.0,34,0.00,,,0.00,,2013-07-17 04:11:00,
2013-07-16 21:22:00,71.0,43.0,29.72,WSW,249,6.0,9.0,37,0.00,,,0.00,,2013-07-17 04:22:00,
2013-07-16 21:32:00,71.0,43.0,29.72,WSW,249,6.0,9.0,37,0.00,,,0.00,,2013-07-17 04:32:00,
2013-07-16 21:42:00,71.0,43.0,29.72,WSW,249,6.0,9.0,37,0.00,,,0.00,,2013-07-17 04:42:00,
2013-07-16 21:53:00,71.0,43.0,29.72,WSW,249,6.0,9.0,37,0.00,,,0.00,,2013-07-17 04:53:00,
2013-07-16 22:01:00,71.0,43.0,29.73,North,0,0.0,1.0,37,0.00,,,0.00,,2013-07-17 05:01:00,
2013-07-16 22:11:00,71.0,43.0,29.73,North,0,0.0,1.0,37,0.00,,,0.00,,2013-07-17 05:11:00,
2013-07-16 22:21:00,72.0,46.0,29.74,North,0,0.0,2.0,40,0.00,,,0.00,,2013-07-17 05:21:00,
2013-07-16 22:32:00,72.0,46.0,29.74,North,0,0.0,2.0,40,0.00,,,0.00,,2013-07-17 05:32:00,
2013-07-16 22:43:00,72.0,48.0,29.74,SW,214,3.0,5.0,43,0.00,,,0.00,,2013-07-17 05:43:00,
2013-07-16 22:52:00,72.0,48.0,29.74,SW,214,3.0,5.0,43,0.00,,,0.00,,2013-07-17 05:52:00,
2013-07-16 23:01:00,72.0,48.0,29.74,North,0,0.0,4.0,42,0.00,,,0.00,,2013-07-17 06:01:00,
2013-07-16 23:11:00,72.0,48.0,29.74,North,0,0.0,4.0,42,0.00,,,0.00,,2013-07-17 06:11:00,
2013-07-16 23:32:00,72.0,48.0,29.74,North,0,0.0,4.0,42,0.00,,,0.00,,2013-07-17 06:32:00,
2013-07-16 23:43:00,71.0,49.0,29.75,North,0,0.0,4.0,45,0.00,,,0.00,,2013-07-17 06:43:00,
2013-07-16 23:52:00,71.0,49.0,29.75,North,0,0.0,4.0,45,0.00,,,0.00,,2013-07-17 06:52:00,